This is the latest recevied weather packets stored in our database for station/object IA5ITY-13. If no packets are shown the sender has not sent any weather packets the latest 10 day(s).
| Time | Temp. | Humidity | Pressure | Rain* | Wind** | Luminosity | Snow |
|---|---|---|---|---|---|---|---|
| 1778147414 | 20° C | 81% | 1013.3 hPa | 0 mm | - | - | - |
| 1778147113 | 18.89° C | 79% | 1013.3 hPa | 0 mm | - | - | - |
| 1778146814 | 20° C | 77% | 1013.3 hPa | 0 mm | - | - | - |
| 1778146509 | 18.89° C | 77% | 1013.2 hPa | 0 mm | - | - | - |
| 1778146224 | 18.89° C | 76% | 1013.2 hPa | 0 mm | - | - | - |
| 1778145909 | 18.89° C | 75% | 1013.1 hPa | 0 mm | - | - | - |
| 1778145613 | 20° C | 72% | 1013 hPa | 0 mm | - | - | - |
| 1778145313 | 20° C | 68% | 1013 hPa | 0 mm | - | - | - |
| 1778145013 | 21.11° C | 72% | 1012.9 hPa | 0 mm | - | - | - |
| 1778144709 | 18.89° C | 73% | 1012.8 hPa | 0 mm | - | - | - |
| 1778144432 | 18.89° C | 73% | 1012.9 hPa | 0 mm | - | - | - |
| 1778144109 | 20° C | 70% | 1012.7 hPa | 0 mm | - | - | - |
| 1778143813 | 20° C | 68% | 1012.7 hPa | 0 mm | - | - | - |
| 1778143513 | 20° C | 66% | 1012.7 hPa | 0 mm | - | - | - |
| 1778143214 | 21.11° C | 62% | 1012.6 hPa | 0 mm | - | - | - |
| 1778142909 | 21.11° C | 57% | 1012.6 hPa | 0 mm | - | - | - |
| 1778142622 | 21.11° C | 56% | 1012.6 hPa | 0 mm | - | - | - |
| 1778142309 | 21.11° C | 55% | 1012.7 hPa | 0 mm | - | - | - |
| 1778142013 | 21.11° C | 57% | 1012.8 hPa | 0 mm | - | - | - |
| 1778141714 | 20° C | 58% | 1012.9 hPa | 0 mm | - | - | - |
| 1778141413 | 21.11° C | 58% | 1012.9 hPa | 0 mm | - | - | - |
| 1778141109 | 20° C | 59% | 1012.8 hPa | 0 mm | - | - | - |
| 1778140831 | 20° C | 60% | 1012.8 hPa | 0 mm | - | - | - |
| 1778140510 | 20° C | 61% | 1012.7 hPa | 0 mm | - | - | - |
| 1778140213 | 21.11° C | 58% | 1012.8 hPa | 0 mm | - | - | - |
* Rain latest hour (hover to see other rain measurements)
** Current wind speed in m/s (hover to see current wind gust speed)